Location: Possagno
(45.8500°N, 11.8667°E)
Time: 09:18:29
(UTC+00:00)

STARLINK-2651 - Pass Details

Date: 30 July 2021
Orbit: 546 x 548 km, 53.1° (Epoch: 22 September)

Event Time Altitude Azimuth Distance (km) Brightness Sun altitude
Rises 20:53:30 0° 288° (WNW) 2,718 8.1 -17.9°
Reaches altitude 10° 20:56:50 10° 259° (W) 1,819 6.6 -18.2°
Maximum altitude 20:58:41 13° 233° (SW) 1,644 6.0 -18.4°
Enters shadow 20:59:49 12° 215° (SW) 1,710 5.9 -18.5°
